[[{"header":{"parameterUnit":"m.s-1","parameterCategory":1,"la1":30.2992,"la2":30.254,"lo1":-89.0895,"lo2":-89.0443,"dy":0.0025,"dx":0.0025,"nx":19,"ny":19,"refTime":"2026-03-17T03:00:00:Z","depth":0,"parameterNumber":2,"parameterNumberName":"U-component_of_WINDS"},"data":[0,0,0,1.3892,1.3892,1.3892,1.3892,1.3896,1.3896,0,0,0,0,0,0,0,0,0,0,0,1.3895,1.3895,1.3892,1.3892,1.3892,1.3892,1.3896,1.3896,0,0,0,0,0,0,0,0,0,0,0,1.3895,1.3895,1.3895,1.3892,1.3892,1.3892,1.3896,1.3895,0,0,0,0,0,0,0,0,0,0,1.3894,1.3899,1.3895,1.3895,1.3892,1.3892,1.3892,1.3895,1.3895,1.3899,0,1.3902,0,1.3899,1.3897,1.3897,0,0,0,1.389,1.3899,1.3897,1.3895,1.3892,1.3892,1.3891,1.3895,1.3895,1.3899,1.3902,1.3902,1.3899,1.3897,1.3897,1.3924,1.3924,0,0,1.389,1.3896,1.3896,1.3897,1.3897,1.3891,1.3891,1.3895,1.3899,1.3902,1.3902,1.39,1.3897,1.3897,1.3924,1.3924,0,0,0,1.3891,1.3896,1.3893,1.3897,1.3896,1.3891,1.3891,1.3899,1.3897,1.3902,1.39,1.3897,1.3897,1.3924,1.3924,1.394,0,0,0,1.3891,1.3897,1.3894,1.3897,1.3896,1.3897,1.3895,1.3897,1.3897,1.39,1.3897,1.3897,1.3923,1.3924,1.3939,1.3946,0,0,0,1.3894,1.3897,1.3898,1.3897,1.3898,1.3897,1.3896,1.3897,1.3896,1.3897,1.3897,1.3923,1.3924,1.3938,1.3945,1.3955,0,0,0,1.3898,1.3912,1.3898,1.3913,1.3898,1.3907,1.3896,1.3903,1.3906,1.3897,1.3923,1.3924,1.3938,1.3944,1.3954,1.3964,1.3969,0,0,1.3919,1.3914,1.3923,1.3911,1.3924,1.3907,1.3923,1.392,1.3915,1.3922,1.3922,1.3939,1.3945,1.3955,1.3995,1.3999,0,0,0,1.3931,1.3937,1.394,1.3943,1.3941,1.3941,1.3935,1.3935,1.394,1.392,1.3946,1.3949,1.3955,1.3959,1.3962,1.3967,1.3926,1.3926,1.3926,1.3968,1.3961,1.3974,1.3968,1.3972,1.3966,1.3969,1.3967,1.3959,1.3965,1.3967,1.3992,1.3998,1.4,1.4005,1.3972,1.3972,1.3972,1.3972,1.3997,1.4004,1.3994,1.4004,1.3997,1.4005,1.4001,1.3995,1.4002,1.399,1.3995,1.3982,1.4005,1.4008,1.3974,1.3973,1.3973,1.3973,1.3973,1.4019,1.4022,1.4021,1.4026,1.4031,1.4024,1.4032,1.4025,1.402,1.4024,1.4025,1.4025,1.4024,1.4025,1.4026,1.4026,1.4026,1.4026,1.4026,1.4042,1.4041,1.4048,1.4049,1.4051,1.4053,1.4049,1.4051,1.4051,1.4046,1.4046,1.4038,1.4008,1.4001,1.4027,1.4027,1.4027,1.4027,1.4027,1.4073,1.4065,1.4076,1.4078,1.4079,1.4084,1.4077,1.4082,1.4083,1.4087,1.4078,1.4057,1.4052,1.405,1.4043,1.4079,1.4079,1.4079,1.4079,1.4091,1.4089,1.4098,1.4102,1.4105,1.41,1.4113,1.4111,1.4108,1.4108,1.4102,1.4094,1.4091,1.4088,1.4084,1.4078,1.4122,1.4122,1.4122,1.411,1.4107,1.4119,1.4115,1.4116,1.4118,1.4129,1.4135,1.413,1.4124,1.4108,1.4106,1.4092,1.4088,1.408,1.4075,1.4063,0,0]},{"header":{"parameterUnit":"m.s-1","parameterCategory":1,"la1":30.2992,"la2":30.254,"lo1":-89.0895,"lo2":-89.0443,"dy":0.0025,"dx":0.0025,"nx":19,"ny":19,"refTime":"2026-03-17T03:00:00:Z","depth":0,"parameterNumber":3,"parameterNumberName":"V-component_of_WINDS"},"data":[0,0,0,-7.2231,-7.2238,-7.2559,-7.256,-7.2977,-7.298,0,0,0,0,0,0,0,0,0,0,0,-7.2142,-7.2145,-7.223,-7.2239,-7.2559,-7.256,-7.2976,-7.298,0,0,0,0,0,0,0,0,0,0,0,-7.2141,-7.2145,-7.2149,-7.224,-7.2559,-7.256,-7.2975,-7.273,0,0,0,0,0,0,0,0,0,0,-7.2417,-7.2343,-7.2144,-7.2149,-7.2242,-7.2558,-7.2561,-7.2718,-7.2746,-7.2835,0,-7.2918,0,-7.2956,-7.3009,-7.301,0,0,0,-7.2233,-7.232,-7.2401,-7.2149,-7.2245,-7.2558,-7.2413,-7.2733,-7.2764,-7.2871,-7.2924,-7.2939,-7.2963,-7.3012,-7.3014,-7.3551,-7.3554,0,0,-7.2216,-7.2203,-7.238,-7.2421,-7.2375,-7.2403,-7.2423,-7.2752,-7.2808,-7.2925,-7.2949,-7.297,-7.3015,-7.3018,-7.3549,-7.3552,0,0,0,-7.2168,-7.2191,-7.2264,-7.2404,-7.2462,-7.2412,-7.2436,-7.2793,-7.2818,-7.2953,-7.2975,-7.3017,-7.3022,-7.3546,-7.355,-7.3675,0,0,0,-7.2157,-7.2163,-7.2256,-7.2252,-7.2456,-7.2632,-7.247,-7.2795,-7.2833,-7.2973,-7.3017,-7.3026,-7.3543,-7.3548,-7.3665,-7.3736,0,0,0,-7.2119,-7.2159,-7.2208,-7.225,-7.2388,-7.2627,-7.2671,-7.2804,-7.2847,-7.3011,-7.3028,-7.3541,-7.3547,-7.3656,-7.3722,-7.3874,0,0,0,-7.2074,-7.2314,-7.2209,-7.2484,-7.2385,-7.2703,-7.2669,-7.2905,-7.3061,-7.3019,-7.3543,-7.3549,-7.3653,-7.3713,-7.3865,-7.4001,-7.4056,0,0,-7.2369,-7.2349,-7.2511,-7.2428,-7.2761,-7.2655,-7.3005,-7.3159,-7.3185,-7.3427,-7.344,-7.3668,-7.3721,-7.3872,-7.4371,-7.4415,0,0,0,-7.26,-7.2717,-7.2808,-7.2957,-7.3081,-7.3192,-7.3294,-7.335,-7.3557,-7.3308,-7.3764,-7.3796,-7.3885,-7.3951,-7.3989,-7.4066,-7.3579,-7.3578,-7.3578,-7.3,-7.3021,-7.3292,-7.3352,-7.3496,-7.3598,-7.3716,-7.3809,-7.3788,-7.3895,-7.3968,-7.4268,-7.4344,-7.4372,-7.4453,-7.4041,-7.4041,-7.4042,-7.4042,-7.3434,-7.3603,-7.3569,-7.3819,-7.3839,-7.4049,-7.4155,-7.4133,-7.433,-7.4215,-7.4295,-7.4168,-7.442,-7.4491,-7.4052,-7.405,-7.4049,-7.4048,-7.4047,-7.3698,-7.3783,-7.3848,-7.4065,-7.4228,-7.4279,-7.447,-7.4481,-7.4493,-7.4572,-7.4649,-7.4647,-7.4646,-7.4607,-7.4609,-7.461,-7.4611,-7.4611,-7.4612,-7.3947,-7.4017,-7.4178,-7.4329,-7.4425,-7.4553,-7.4656,-7.4751,-7.4858,-7.485,-7.4851,-7.4819,-7.4441,-7.4346,-7.4628,-7.4625,-7.4623,-7.4622,-7.4621,-7.4381,-7.4284,-7.4532,-7.4629,-7.4806,-7.4968,-7.4979,-7.517,-7.5249,-7.5343,-7.5293,-7.5012,-7.4991,-7.4962,-7.4883,-7.5288,-7.5288,-7.5288,-7.5288,-7.4604,-7.4595,-7.4851,-7.5004,-7.5156,-7.5191,-7.5469,-7.555,-7.5619,-7.5669,-7.5612,-7.5509,-7.5478,-7.5476,-7.5435,-7.5362,-7.5879,-7.588,-7.588,-7.4872,-7.4877,-7.5113,-7.5181,-7.532,-7.5438,-7.57,-7.5876,-7.5933,-7.5904,-7.5709,-7.5684,-7.5517,-7.5461,-7.5429,-7.5365,-7.5231,0,0]}]]